Regional Weather Roundup
Issued by NWS

Home | Current Version | Previous Version | Graphics & Text | Print | Product List | Glossary On
Versions: 1 2 3 4 5 6 7 8 9 10 11 12 13 14 15 16 17 18 19 20 21 22 23 24 25 26 27 28 29 30 31 32 33 34 35 36 37 38 39 40 41 42 43 44 45 46 47 48 49 50
000
ASUS43 KDTX 050401
RWRMI
MICHIGAN HOURLY REGIONAL WEATHER ROUNDUP
NATIONAL WEATHER SERVICE DETROIT/PONTIAC MI
1200 AM EDT THU MAY 05 2016

NOTE: "FAIR" INDICATES FEW OR NO CLOUDS BELOW 12,000 FEET WITH NO
SIGNIFICANT WEATHER AND/OR OBSTRUCTION TO VISIBILITY.

MIZ047>049-052>055-059>063-066>070-074>076-081>083-050500-
SOUTHEAST LOWER MICHIGAN

CITY           SKY/WX    TMP DP  RH WIND       PRES   REMARKS
ADRIAN         CLOUDY    43  39  86 N5        29.73R
ALMA           CLOUDY    45  44  95 N9        29.79S
ANN ARBOR      LGT RAIN  46  43  89 NW6       29.72R
BAD AXE        PTCLDY    43  41  95 N10       29.78S
CARO           CLOUDY    45  43  93 N6        29.76S
DETROIT CITY   CLOUDY    50  47  89 N6        29.73R
DETROIT        LGT RAIN  48  46  93 NW3       29.73R
FLINT          MOCLDY    48  43  82 N7        29.77R HAZE
GROSSE ILE     LGT RAIN  50  46  87 CALM      29.70S
HILLSDALE      CLOUDY    40  38  92 NE3       29.72R
HOWELL         CLOUDY    49  48  99 NE6       29.73S FOG

CITY           SKY/WX    TMP DP  RH WIND       PRES   REMARKS
JACKSON        CLOUDY    44  41  89 N3        29.73R
LAMBERTVILLE   RAIN      46  43  88 W3        29.73R
LANSING        CLOUDY    48  46  93 NE15      29.76R
LAPEER         FAIR      45  43  94 N7        29.75S
MASON          LGT RAIN  47  46  96 NE10      29.74R
MONROE         CLOUDY    47  44  87 W10       29.71S
MT. CLEMENS    CLOUDY    48  48 100 N7        29.72S
PONTIAC        MOCLDY    48  46  93 NE3       29.73S
PORT HOPE        N/A     43  41  93 N7        29.78R
PORT HURON     PTCLDY    45  45 100 CALM      29.73S
TRI CITIES     PTCLDY    47  43  86 N15       29.78R
MIDLAND        CLOUDY    45  43  93 N8        29.79R
TROY           CLOUDY    49  48  97 CALM      29.75S
SAGINAW HB     MOCLDY    46  43  87 N8        29.77S
$$
MIZ043>046-050>051-056>058-064>065-071>073-077>080-050500-
SOUTHWEST LOWER MICHIGAN

CITY           SKY/WX    TMP DP  RH WIND       PRES   REMARKS
BATTLE CREEK   LGT RAIN  45  42  89 NE7       29.74R
BENTON HARBOR  CLOUDY    42  38  85 N13G23    29.79S
BIG RAPIDS     CLOUDY    42  37  84 N12G18    29.82S
COLDWATER      CLOUDY    42  42  99 E8        29.72R
FREMONT        CLOUDY    40  39  93 N13G20    29.83S WCI  33
HOLLAND        CLOUDY   N/A N/A N/A N10G22    29.80R
GRAND RAPIDS   LGT RAIN  46  42  86 N16       29.78R
IONIA          CLOUDY    45  44  95 N10       29.77R
KALAMAZOO      LGT RAIN  44  41  89 N13       29.74R FOG
LUDINGTON      CLOUDY    41  35  80 N13G22    29.89R
MARSHALL       CLOUDY    43  41  93 E3        29.73R
MOUNT PLEASANT CLOUDY    45  43  93 N12         N/A
MUSKEGON       CLOUDY    42  36  79 N13       29.84R
$$
MIZ016>042-050500-
NORTHERN LOWER MICHIGAN

CITY           SKY/WX    TMP DP  RH WIND       PRES   REMARKS
ALPENA         CLOUDY    44  41  89 N10       29.84R
BEAVER ISLAND  CLOUDY    40  34  80 N7        29.91S
BELLAIRE       CLOUDY    43  35  71 N3        29.89S
CADILLAC       CLOUDY    39  35  84 N8G16     29.85R WCI  34
CHARLEVOIX     CLOUDY    41  36  84 N7        29.93R
FRANKFORT      CLOUDY    41  35  80 N7G16     29.91R
GAYLORD        CLOUDY    42  39  89 N6        29.86R
HARBOR SPRINGS CLOUDY    43  37  77 NW3       29.89R
HOUGHTON LAKE  CLOUDY    42  40  92 N10       29.84S
MANISTEE       CLOUDY    43  30  61 N9        29.90S
OSCODA         MOCLDY    46  42  86 N9        29.80S
PELLSTON       CLOUDY    44  38  79 N6        29.89S
ROGERS CITY    CLOUDY    42  40  91 NW8       29.87S
TRAVERSE CITY  CLOUDY    44  34  67 N10       29.89R
$$
MIZ007>008-015-050500-
EASTERN UPPER MICHIGAN

CITY           SKY/WX    TMP DP  RH WIND       PRES   REMARKS
KINROSS          N/A     43  43 100 N6        29.89R
MACKINAC ISLAN CLOUDY    42  38  86 N8        29.88R
NEWBERRY       PTCLDY    37  34  86 NW6       29.91S WCI  33
S. S. MARIE    CLOUDY    44  39  82 N5        29.89R
MUNISING         N/A     38  35  89 NW7       29.96S WCI  33
$$
MIZ004>006-011>014-085-050500-
CENTRAL UPPER MICHIGAN

CITY           SKY/WX    TMP DP  RH WIND       PRES   REMARKS
MANISTIQUE     CLEAR     35  32  90 NW9       29.93S WCI  28
ESCANABA       CLEAR     37  28  70 N3        29.96S
MENOMINEE      CLEAR     37  30  75 N6        29.98  WCI  33
SAWYER-GWINN   CLEAR     35  30  83 N7        29.95S WCI  29
$$
MIZ001>003-009>011-084-050500-
WESTERN UPPER MICHIGAN

CITY           SKY/WX    TMP DP  RH WIND       PRES   REMARKS
IRON MOUNTAIN  CLEAR     36  30  79 NW7       29.96R WCI  30
HOUGHTON       CLEAR     33  29  85 NW7       29.99S WCI  27
COPPER HARBOR    N/A     38  35  89 N7        30.00S WCI  33
IRONWOOD         N/A     36  32  87 CALM      29.98S
$$

ABBREVIATIONS USED IN REMARKS
   TC - TEMPERATURE IN CELSIUS
  WCI - WIND CHILL INDEX
   HX - HEAT INDEX
  VSB - VISIBILITY





USA.gov is the U.S. government's official web portal to all federal, state and local government web resources and services.